Location: Huntsville
(41.2590°N, 111.7678°W)
Time: 19:50:02
(UTC+00:00)

Explorer 7 - Pass Details

Date: 20 June 2021
Orbit: 484 x 676 km, 50.3° (Epoch: 30 July)

Event Time Altitude Azimuth Distance (km) Brightness Sun altitude
Rises 11:18:39 0° 294° (WNW) 2,898 10.2 -6.2°
Reaches altitude 10° 11:21:21 10° 281° (W) 1,952 9.2 -5.8°
Maximum altitude 11:24:55 24° 228° (SW) 1,231 8.0 -5.3°
Drops below altitude 10° 11:28:18 10° 174° (S) 1,843 9.2 -4.8°
Sets 11:30:48 0° 160° (SSE) 2,696 10.2 -4.4°
